User: anonymous   Login
Location: Bakov nad Jizerou
(50.4784°N, 14.9394°E)
Time: 22:49:58
(UTC+00:00)
Language:

EO 1 Del DPAF - Orbit

View from above orbital plane
View from above orbital plane
View from above satellite
View from above satellite

Ground track
Ground track

The orbit data is extracted from the following two-line orbital elements,

1 26623U 00075E   21271.83792927  .00010744  00000-0  49563-3 0  9997
2 26623  97.9952 197.4805 0004155  76.5120 283.6576 15.20435587132847
Epoch (UTC): 28 September 2021 20:06:37
Eccentricity: 0.0004155
inclination: 97.9952°
perigee height: 501 km
apogee height: 507 km
right ascension of ascending node: 197.4805°
argument of perigee: 76.5120°
revolutions per day: 15.20435587
mean anomaly at epoch: 283.6576°
orbit number at epoch: 13284

The dashed part of the orbit path shows where the satellite is in the earth's shadow,  

DLR